Weather reports worldwide

Advertisment
El Dorado/Goodwin Field, United States of America (2074428): temperature & dewpoint: 30.05.2020 12:00:00 - 05.06.2020 12:00:00 (CDT)El Dorado/Goodwin Field, United States of America (2074428): wind speed: 30.05.2020 12:00:00 - 05.06.2020 12:00:00 (CDT)El Dorado/Goodwin Field, United States of America (2074428): wind direction: 30.05.2020 12:00:00 - 05.06.2020 12:00:00 (CDT)El Dorado/Goodwin Field, United States of America (2074428): reduced air pressure: 30.05.2020 12:00:00 - 05.06.2020 12:00:00 (CDT)El Dorado/Goodwin Field, United States of America (2074428): visibility: 30.05.2020 12:00:00 - 05.06.2020 12:00:00 (CDT)El Dorado/Goodwin Field, United States of America (2074428): precipitation: 30.05.2020 12:00:00 - 05.06.2020 12:00:00 (CDT)
Date & Time tt [°C] td [°C] ff [km/h] ff [kn] dd ppp [hPa] vv [km] rr [mm]
05.06.2020 12:00:00 32,2 24,4 8 4 SW 1014,7 16 -
05.06.2020 11:00:00 31,7 25,0 9 5 SSW 1014,5 16 -
05.06.2020 10:00:00 30,0 25,0 11 6 WSW 1014,4 16 -
05.06.2020 09:00:00 27,8 24,4 11 6 S 1014,1 16 -
05.06.2020 08:00:00 25,0 23,9 9 5 SSW 1013,9 16 -
05.06.2020 07:00:00 23,3 23,3 5 3 SSE 1013,3 11 -
05.06.2020 06:00:00 22,8 22,8 5 3 S 1012,6 15 -
05.06.2020 05:00:00 22,8 22,8 8 4 SSW 1012,2 16 -
05.06.2020 04:00:00 22,8 22,2 5 3 S 1012,2 16 -
05.06.2020 03:00:00 23,3 22,8 5 3 S 1012,1 16 -
05.06.2020 02:00:00 23,9 22,8 8 4 SSW 1012,3 16 -
05.06.2020 01:00:00 24,4 22,8 5 3 SSW 1011,9 16 -
05.06.2020 00:00:00 24,4 23,3 5 3 SSW 1012,1 16 -
04.06.2020 23:00:00 24,4 23,9 0 0 N 1012,2 16 -
04.06.2020 22:00:00 25,6 23,3 0 0 N 1011,7 16 -
04.06.2020 21:00:00 26,7 23,9 0 0 N 1010,4 16 -
04.06.2020 20:00:00 28,9 23,9 8 4 S 1010,1 16 -
04.06.2020 19:00:00 30,6 22,8 8 4 SSW 1010,1 16 -
04.06.2020 18:00:00 32,2 22,2 21 11 S 1009,7 16 -
04.06.2020 17:00:00 32,8 22,8 15 8 SSW 1010,1 16 -
04.06.2020 16:00:00 32,2 22,2 16 9 S 1010,3 16 -
04.06.2020 15:00:00 32,8 22,8 21 11 S 1010,7 16 -
04.06.2020 14:00:00 32,2 22,8 15 8 WSW 1012,8 10 0,0
04.06.2020 13:00:00 30,0 22,2 9 5 WNW 1013,5 16 -
04.06.2020 12:00:00 30,0 22,2 15 8 W 1013,6 16 -
04.06.2020 11:00:00 29,4 22,2 15 8 SW 1013,3 16 -
04.06.2020 10:00:00 28,3 22,2 13 7 SSW 1013,2 16 -
04.06.2020 09:00:00 26,1 21,7 13 7 SSW 1013,4 16 -
04.06.2020 08:00:00 23,9 21,1 13 7 SSW 1013,2 16 -
04.06.2020 07:00:00 21,7 21,1 5 3 S 1012,7 16 -
04.06.2020 06:00:00 21,1 21,1 9 5 S 1011,8 16 -
04.06.2020 05:00:00 21,7 21,1 0 0 N 1011,5 16 -
04.06.2020 04:00:00 22,2 21,1 5 3 SSE 1011,1 16 -
04.06.2020 03:00:00 22,8 21,1 8 4 SW 1011,3 16 -
04.06.2020 02:00:00 23,3 21,1 11 6 SSW 1012,0 16 -
04.06.2020 01:00:00 24,4 21,7 16 9 S 1012,7 16 -
04.06.2020 00:00:00 25,6 23,3 21 11 S 1012,8 16 -
03.06.2020 23:00:00 26,1 23,9 9 5 SSE 1012,7 16 -
03.06.2020 22:00:00 26,1 24,4 5 3 SSE 1012,4 16 -
03.06.2020 21:00:00 26,7 24,4 0 0 N 1012,1 16 -
03.06.2020 20:00:00 28,9 23,9 0 0 N 1011,9 16 -
03.06.2020 19:00:00 31,1 22,2 8 4 SSE 1011,7 16 -
03.06.2020 18:00:00 31,1 22,8 5 3 SSW 1011,4 16 -
03.06.2020 17:00:00 31,7 21,7 5 3 - 1011,9 16 -
03.06.2020 16:00:00 32,8 21,1 0 0 N 1012,5 16 -
03.06.2020 15:00:00 31,7 22,8 5 3 - 1013,1 16 -
03.06.2020 14:00:00 31,1 21,7 8 4 SSW 1013,9 16 -
03.06.2020 13:00:00 31,1 22,8 13 7 W 1015,0 16 -
03.06.2020 12:00:00 28,9 22,8 5 3 - 1016,0 16 -
03.06.2020 11:00:00 26,7 22,2 8 4 SW 1016,5 16 -
03.06.2020 10:00:00 25,6 22,2 5 3 SW 1016,9 16 -
03.06.2020 09:00:00 24,4 21,7 8 4 S 1017,2 16 -
03.06.2020 08:00:00 22,8 21,1 5 3 S 1016,6 16 -
03.06.2020 07:00:00 20,6 20,0 0 0 N 1016,2 16 -
03.06.2020 06:00:00 18,9 18,9 0 0 N 1015,9 16 -
03.06.2020 05:00:00 19,4 18,9 0 0 N 1015,7 16 -
03.06.2020 04:00:00 19,4 19,4 0 0 N 1016,0 16 -
03.06.2020 03:00:00 19,4 19,4 0 0 N 1016,4 16 -
03.06.2020 02:00:00 20,0 20,0 0 0 N 1016,7 16 -
03.06.2020 01:00:00 20,0 20,0 0 0 N 1017,1 16 -
03.06.2020 00:00:00 21,1 21,1 0 0 N 1017,3 16 -
02.06.2020 23:00:00 22,8 21,7 0 0 N 1017,7 16 -
02.06.2020 22:00:00 23,3 22,2 5 3 - 1017,8 10 -
02.06.2020 21:00:00 23,3 21,7 0 0 N 1017,3 16 -
02.06.2020 20:00:00 25,6 21,7 0 0 N 1016,9 16 -
02.06.2020 19:00:00 28,9 20,6 8 4 S 1016,6 16 -
02.06.2020 18:00:00 29,4 20,0 0 0 N 1016,7 16 -
02.06.2020 17:00:00 29,4 20,0 0 0 N 1017,3 16 -
02.06.2020 16:00:00 29,4 20,6 0 0 N 1017,7 16 -
02.06.2020 15:00:00 27,2 21,7 9 5 WNW 1018,4 16 0,0
02.06.2020 14:00:00 26,7 20,6 8 4 SSW 1019,1 16 0,0
02.06.2020 13:00:00 28,3 18,9 9 5 SE 1019,4 16 -
02.06.2020 12:00:00 27,8 18,3 8 4 S 1019,8 16 -
02.06.2020 11:00:00 25,6 20,6 0 0 N 1020,0 16 -
02.06.2020 10:00:00 23,3 18,9 0 0 N 1019,9 16 -
02.06.2020 09:00:00 22,2 19,4 0 0 N 1020,0 16 -
02.06.2020 08:00:00 20,0 19,4 0 0 N 1019,8 15 -
02.06.2020 07:00:00 18,9 18,9 0 0 N 1019,5 15 -
02.06.2020 06:00:00 17,8 17,8 0 0 N 1018,6 15 -
02.06.2020 05:00:00 17,2 17,2 0 0 N 1018,1 15 -
02.06.2020 04:00:00 17,2 17,2 0 0 N 1018,1 16 -
02.06.2020 03:00:00 17,8 17,8 0 0 N 1018,5 13 -
02.06.2020 02:00:00 18,3 18,3 0 0 N 1019,0 16 -
02.06.2020 01:00:00 18,9 18,3 0 0 N 1019,4 16 -
02.06.2020 00:00:00 20,0 18,3 0 0 N 1019,6 16 -
01.06.2020 23:00:00 20,6 18,9 0 0 N 1019,8 16 -
01.06.2020 22:00:00 21,1 19,4 0 0 N 1019,6 16 -
01.06.2020 21:00:00 21,7 20,0 0 0 N 1019,3 16 -
01.06.2020 20:00:00 23,3 20,6 0 0 N 1019,1 16 -
01.06.2020 19:00:00 26,7 17,2 8 4 E 1018,8 16 -
01.06.2020 18:00:00 27,2 17,2 11 6 E 1018,9 16 -
01.06.2020 17:00:00 27,8 17,8 13 7 NE 1019,2 16 -
01.06.2020 16:00:00 27,2 17,8 11 6 E 1019,8 16 -
01.06.2020 15:00:00 27,8 17,2 11 6 E 1020,3 16 -
01.06.2020 14:00:00 30,0 17,2 11 6 ENE 1020,4 16 -
01.06.2020 13:00:00 28,9 17,2 - - - 1021,0 16 -
01.06.2020 12:00:00 27,8 17,2 13 7 E 1021,8 16 -
01.06.2020 11:00:00 26,1 17,8 9 5 E 1022,2 16 -
01.06.2020 10:00:00 22,8 17,8 5 3 ENE 1022,3 16 -
01.06.2020 09:00:00 21,1 17,2 9 5 ENE 1022,3 16 -
01.06.2020 08:00:00 19,4 16,7 8 4 ENE 1021,9 16 -
01.06.2020 07:00:00 17,8 16,7 0 0 N 1021,3 16 -
01.06.2020 06:00:00 16,1 15,6 0 0 N 1020,9 16 -
01.06.2020 05:00:00 16,1 15,6 0 0 N 1020,6 16 -
01.06.2020 04:00:00 17,2 15,6 0 0 N 1020,3 16 -
01.06.2020 03:00:00 17,2 16,1 0 0 N 1020,3 16 -
01.06.2020 02:00:00 17,8 16,7 0 0 N 1020,5 16 -
01.06.2020 01:00:00 18,3 16,7 0 0 N 1020,6 16 -
01.06.2020 00:00:00 18,9 16,7 0 0 N 1020,8 16 -
31.05.2020 23:00:00 19,4 17,2 0 0 N 1020,8 16 -
31.05.2020 22:00:00 21,1 16,7 0 0 N 1020,2 16 -
31.05.2020 21:00:00 22,2 16,7 5 3 N 1020,1 16 -
31.05.2020 20:00:00 24,4 17,2 5 3 NE 1020,0 16 -
31.05.2020 19:00:00 28,3 15,6 11 6 NNE 1018,0 16 -
31.05.2020 18:00:00 28,3 14,4 9 5 ENE 1019,5 16 -
31.05.2020 17:00:00 29,4 15,0 16 9 NNE 1019,9 16 -
31.05.2020 16:00:00 29,4 15,0 16 9 ENE 1020,5 16 -
31.05.2020 15:00:00 29,4 15,6 15 8 NNE 1020,6 16 -
31.05.2020 14:00:00 28,9 15,6 11 6 - 1021,1 16 -
31.05.2020 13:00:00 27,8 15,0 11 6 E 1021,6 16 -
31.05.2020 12:00:00 27,8 15,0 15 8 E 1022,0 16 -
31.05.2020 11:00:00 26,1 14,4 13 7 NE 1022,0 16 -
31.05.2020 10:00:00 25,0 15,6 18 10 NE 1022,0 16 -
31.05.2020 09:00:00 22,2 16,1 8 4 E 1022,1 16 -
31.05.2020 08:00:00 19,4 15,6 9 5 NE 1022,1 16 -
31.05.2020 07:00:00 16,1 15,6 0 0 N 1021,8 16 -
31.05.2020 06:00:00 16,1 13,9 0 0 N 1021,3 16 -
31.05.2020 05:00:00 16,7 14,4 5 3 NE 1020,7 16 -
31.05.2020 04:00:00 16,1 15,0 0 0 N 1020,3 16 -
31.05.2020 03:00:00 16,1 15,6 0 0 N 1019,8 16 -
31.05.2020 02:00:00 17,8 15,6 0 0 N 1019,6 16 -
31.05.2020 01:00:00 18,3 16,7 0 0 N 1019,7 16 -
31.05.2020 00:00:00 18,9 16,7 5 3 NE 1019,8 16 -
30.05.2020 23:00:00 20,0 17,2 5 3 ENE 1019,9 16 -
30.05.2020 22:00:00 20,0 17,8 5 3 NE 1019,2 16 -
30.05.2020 21:00:00 21,7 17,8 0 0 N 1018,7 16 -
30.05.2020 20:00:00 25,6 17,2 8 4 NNE 1018,3 16 -
30.05.2020 19:00:00 28,3 15,6 11 6 NNE 1018,0 16 -
30.05.2020 18:00:00 29,4 15,6 11 6 NNE 1017,9 16 -
30.05.2020 17:00:00 29,4 16,7 9 5 N 1018,3 16 -
30.05.2020 16:00:00 30,0 15,6 9 5 N 1018,7 16 -
30.05.2020 15:00:00 30,0 15,6 11 6 NE 1019,0 16 -
30.05.2020 14:00:00 29,4 15,0 8 4 - 1019,4 16 -
30.05.2020 13:00:00 28,9 15,0 11 6 NE 1020,2 16 -
30.05.2020 12:00:00 27,8 16,1 11 6 NE 1020,7 16 -

tt = temperature
td = dewpoint
ff = wind speed
dd = wind direction
ppp = reduced air pressure
vv = visibility
rr = precipitation

Next stations